Weather reports worldwide

Advertisment
Leeming, United Kingdom (3257): temperature & dewpoint: 18.04.2019 08:00:00 - 24.04.2019 08:00:00 (BST)Leeming, United Kingdom (3257): temperature -20cm & temperature -100cm: 18.04.2019 08:00:00 - 24.04.2019 08:00:00 (BST)Leeming, United Kingdom (3257): wind speed: 18.04.2019 08:00:00 - 24.04.2019 08:00:00 (BST)Leeming, United Kingdom (3257): wind direction: 18.04.2019 08:00:00 - 24.04.2019 08:00:00 (BST)Leeming, United Kingdom (3257): reduced air pressure: 18.04.2019 08:00:00 - 24.04.2019 08:00:00 (BST)Leeming, United Kingdom (3257): visibility: 18.04.2019 08:00:00 - 24.04.2019 08:00:00 (BST)Leeming, United Kingdom (3257): sunshine duration: 18.04.2019 08:00:00 - 24.04.2019 08:00:00 (BST)Leeming, United Kingdom (3257): precipitation: 18.04.2019 08:00:00 - 24.04.2019 08:00:00 (BST)
Date & Time tt [°C] td [°C] tt -20cm [°C] tt -100cm [°C] ff [km/h] ff [kn] dd ppp [hPa] vv [km] sd [min] rr [mm]
24.04.2019 08:00:00 - - - - - - - - - - -
24.04.2019 07:00:00 7,6 6,9 - - 11 6 N 995,3 3,5 0 0,0
24.04.2019 06:00:00 7,6 6,8 - - 13 7 NNW 995,5 3,9 0 0,0
24.04.2019 05:00:00 7,3 6,4 - - 11 6 N 996,0 4,5 0 0,0
24.04.2019 04:00:00 7,0 6,1 - - 13 7 NW 996,3 4,7 0 0,0
24.04.2019 03:00:00 6,9 6,0 - - 13 7 NW 997,0 4,6 0 0,0
24.04.2019 02:00:00 6,5 5,8 - - 13 7 NNW 997,6 4,3 0 0,0
24.04.2019 01:00:00 6,0 5,3 - - 13 7 NNW 998,4 3,2 - 0,0
24.04.2019 00:00:00 6,3 5,5 - - 13 7 NNW 999,0 2,8 0 0,0
23.04.2019 23:00:00 6,7 5,5 - - 11 6 N 999,7 4,0 0 0,0
23.04.2019 22:00:00 7,4 5,8 - - 13 7 N 1000,2 7 0 0,0
23.04.2019 21:00:00 9,8 5,4 - - 5 3 NE 1000,4 10 0 0,0
23.04.2019 20:00:00 12,5 5,5 - - 8 4 E 1000,2 16 0 0,0
23.04.2019 19:00:00 14,3 4,2 - - 16 9 E 999,9 10 54 0,0
23.04.2019 18:00:00 15,6 4,8 - - 16 9 ESE 999,7 10 60 0,0
23.04.2019 17:00:00 16,1 4,7 - - 16 9 ESE 999,8 10 48 0,0
23.04.2019 16:00:00 17,3 4,2 - - 16 9 ESE 999,9 10 60 0,0
23.04.2019 15:00:00 17,7 6,1 - - 9 5 ENE 1000,3 10 54 0,0
23.04.2019 14:00:00 16,2 7,4 - - 5 3 E 1000,6 10 0 0,0
23.04.2019 13:00:00 14,9 7,1 - - 5 3 ENE 1001,2 10 6 0,0
23.04.2019 12:00:00 14,6 7,3 - - 8 4 E 1001,5 10 6 0,0
23.04.2019 11:00:00 13,2 7,7 - - 4 2 N 1002,0 10 0 0,0
23.04.2019 10:00:00 11,6 7,8 10,7 8,4 8 4 N 1002,0 10 0 0,0
23.04.2019 09:00:00 9,8 7,5 - - 11 6 NW 1002,3 10 0 0,0
23.04.2019 08:00:00 8,2 7,2 - - 11 6 NNW 1002,4 4,0 0 0,0
23.04.2019 07:00:00 6,4 5,5 - - 4 2 NW 1002,7 4,0 0 0,0
23.04.2019 06:00:00 6,3 5,1 - - 8 4 NNW 1002,5 3,8 0 0,0
23.04.2019 05:00:00 7,0 5,9 - - 8 4 NNW 1002,7 3,9 0 0,0
23.04.2019 04:00:00 7,2 5,8 - - 5 3 NNW 1002,9 4,0 0 0,0
23.04.2019 03:00:00 8,1 6,0 - - 5 3 NNW 1003,3 5 0 0,0
23.04.2019 02:00:00 8,7 5,9 - - 8 4 NNW 1003,7 7 0 0,0
23.04.2019 01:00:00 8,1 5,9 - - 8 4 NNW 1004,1 6 - 0,0
23.04.2019 00:00:00 7,8 4,7 - - 8 4 NW 1004,4 6 0 0,0
22.04.2019 23:00:00 9,1 5,8 - - 13 7 NW 1004,3 8 0 0,0
22.04.2019 22:00:00 9,5 3,1 - - 5 3 SW 1004,7 10 0 0,0
22.04.2019 21:00:00 14,3 3,6 - - 4 2 ESE 1004,7 13 0 0,0
22.04.2019 20:00:00 16,7 4,0 - - 8 4 ESE 1004,7 16 36 0,0
22.04.2019 19:00:00 18,4 4,9 - - 11 6 ESE 1004,6 10 60 0,0
22.04.2019 18:00:00 19,2 3,1 - - 16 9 ESE 1004,8 10 48 0,0
22.04.2019 17:00:00 20,1 4,7 - - 21 11 SE 1005,0 17 24 0,0
22.04.2019 16:00:00 21,8 6,5 - - 21 11 ESE 1005,4 19 60 0,0
22.04.2019 15:00:00 21,4 6,7 - - 16 9 SE 1006,0 10 60 0,0
22.04.2019 14:00:00 20,5 3,9 - - 18 10 SE 1006,8 17 60 0,0
22.04.2019 13:00:00 19,6 5,2 - - 22 12 SSE 1007,5 19 60 0,0
22.04.2019 12:00:00 18,2 3,0 - - 13 7 SE 1008,3 29 60 0,0
22.04.2019 11:00:00 16,0 5,1 - - 9 5 SE 1009,0 10 60 0,0
22.04.2019 10:00:00 13,3 5,4 10,4 8,2 8 4 SSE 1009,8 11 60 0,0
22.04.2019 09:00:00 11,3 4,6 - - 8 4 SSE 1010,2 10 60 0,0
22.04.2019 08:00:00 7,4 5,3 - - 5 3 SSW 1010,6 8 60 0,0
22.04.2019 07:00:00 3,4 2,1 - - 5 3 SW 1011,1 6 12 0,0
22.04.2019 06:00:00 3,8 2,0 - - 8 4 SW 1011,2 7 0 0,0
22.04.2019 05:00:00 4,3 1,7 - - 5 3 SW 1011,3 7 0 0,0
22.04.2019 04:00:00 5,7 2,9 - - 5 3 SSW 1011,9 10 0 0,0
22.04.2019 03:00:00 6,0 1,9 - - 5 3 SSW 1012,4 10 0 0,0
22.04.2019 02:00:00 8,4 2,6 - - 9 5 S 1012,8 14 0 0,0
22.04.2019 01:00:00 10,5 2,7 - - 13 7 SSE 1013,2 18 - 0,0
22.04.2019 00:00:00 10,6 2,9 - - 11 6 S 1013,7 10 0 0,0
21.04.2019 23:00:00 10,9 3,6 - - 11 6 S 1013,8 17 0 0,0
21.04.2019 22:00:00 11,8 4,4 - - 13 7 S 1014,3 10 0 0,0
21.04.2019 21:00:00 12,8 4,6 - - 13 7 S 1014,5 17 0 0,0
21.04.2019 20:00:00 17,0 5,5 - - 16 9 ESE 1014,4 10 48 0,0
21.04.2019 19:00:00 20,2 4,3 - - 15 8 SE 1014,4 25 60 0,0
21.04.2019 18:00:00 21,1 4,0 - - 21 11 SE 1015,0 21 60 0,0
21.04.2019 17:00:00 21,6 3,7 - - 21 11 SE 1015,7 27 60 0,0
21.04.2019 16:00:00 22,0 4,5 - - 22 12 SE 1016,5 10 60 0,0
21.04.2019 15:00:00 22,2 4,4 - - 22 12 SE 1017,4 15 60 0,0
21.04.2019 14:00:00 21,6 5,3 - - 22 12 SSE 1018,4 15 60 0,0
21.04.2019 13:00:00 20,4 7,0 - - 22 12 SSE 1019,4 17 60 0,0
21.04.2019 12:00:00 19,0 7,5 - - 22 12 SE 1020,2 16 60 0,0
21.04.2019 11:00:00 16,5 7,8 - - 15 8 SSE 1021,3 12 60 0,0
21.04.2019 10:00:00 13,7 7,1 10,0 8,0 15 8 SE 1022,2 9 60 0,0
21.04.2019 09:00:00 11,0 6,7 - - 15 8 SE 1022,8 7 60 0,0
21.04.2019 08:00:00 8,9 6,2 - - 9 5 S 1023,4 5 60 0,0
21.04.2019 07:00:00 7,2 5,1 - - 9 5 S 1023,8 5 12 0,0
21.04.2019 06:00:00 6,0 3,5 - - 8 4 S 1024,1 4,1 0 0,0
21.04.2019 05:00:00 5,1 4,2 - - 8 4 SW 1024,9 3,3 0 0,0
21.04.2019 04:00:00 7,9 5,7 - - 9 5 SSE 1025,4 6 0 0,0
21.04.2019 03:00:00 6,7 4,7 - - 4 2 SSW 1026,1 6 0 0,0
21.04.2019 02:00:00 10,1 5,9 - - 13 7 SSE 1026,6 9 0 0,0
21.04.2019 01:00:00 9,7 6,6 - - 5 3 S 1027,4 10 - 0,0
21.04.2019 00:00:00 11,7 6,3 - - 9 5 SSE 1027,7 10 0 0,0
20.04.2019 23:00:00 13,1 6,4 - - 9 5 S 1028,2 16 0 0,0
20.04.2019 22:00:00 13,7 6,4 - - 8 4 S 1028,3 17 0 0,0
20.04.2019 21:00:00 16,0 6,3 - - 11 6 SE 1028,4 20 0 0,0
20.04.2019 20:00:00 18,6 3,7 - - 15 8 SE 1028,1 45 30 0,0
20.04.2019 19:00:00 20,3 3,2 - - 15 8 SE 1028,2 10 60 0,0
20.04.2019 18:00:00 21,3 3,6 - - 16 9 SE 1028,7 35 60 0,0
20.04.2019 17:00:00 21,8 2,9 - - 16 9 SE 1029,3 45 60 0,0
20.04.2019 16:00:00 22,0 2,6 - - 15 8 SSE 1029,7 35 60 0,0
20.04.2019 15:00:00 21,6 2,8 - - 18 10 SSE 1030,3 28 60 0,0
20.04.2019 14:00:00 21,2 3,5 - - 16 9 SE 1030,9 23 60 0,0
20.04.2019 13:00:00 20,1 4,6 - - 15 8 SSE 1031,5 45 60 0,0
20.04.2019 12:00:00 18,9 6,0 - - 15 8 SSE 1032,1 18 60 0,0
20.04.2019 11:00:00 16,6 6,9 - - 9 5 SSE 1032,6 10 60 0,0
20.04.2019 10:00:00 13,4 6,3 9,7 8,0 8 4 SSE 1032,8 14 60 0,0
20.04.2019 09:00:00 10,0 4,3 - - 8 4 SE 1032,9 10 60 0,0
20.04.2019 08:00:00 7,6 4,4 - - 4 2 SSE 1032,9 16 54 0,0
20.04.2019 07:00:00 3,5 2,5 - - 2 1 SW 1033,2 7 12 0,0
20.04.2019 06:00:00 2,7 1,6 - - 2 1 S 1032,7 8 0 0,0
20.04.2019 05:00:00 3,7 2,7 - - 2 1 WSW 1032,9 9 0 0,0
20.04.2019 04:00:00 3,9 2,3 - - 4 2 SW 1033,1 8 0 0,0
20.04.2019 03:00:00 4,2 2,1 - - 5 3 SW 1033,0 8 0 0,0
20.04.2019 02:00:00 4,9 2,6 - - 0 0 N 1033,2 10 0 0,0
20.04.2019 01:00:00 6,8 2,8 - - 2 1 NNW 1033,2 11 - 0,0
20.04.2019 00:00:00 7,9 3,8 - - 4 2 WSW 1033,3 10 0 0,0
19.04.2019 23:00:00 11,0 4,9 - - 9 5 S 1033,0 10 0 0,0
19.04.2019 22:00:00 8,4 3,9 - - 11 6 SW 1032,9 10 0 0,0
19.04.2019 21:00:00 14,8 5,1 - - 8 4 ESE 1032,3 23 0 0,0
19.04.2019 20:00:00 16,9 3,5 - - 9 5 SE 1031,8 10 36 0,0
19.04.2019 19:00:00 18,8 3,5 - - 13 7 ESE 1031,4 10 60 0,0
19.04.2019 18:00:00 20,3 3,2 - - 15 8 SE 1031,1 10 60 0,0
19.04.2019 17:00:00 20,9 3,1 - - 15 8 SE 1030,8 18 60 0,0
19.04.2019 16:00:00 20,7 6,8 - - 11 6 SSE 1031,0 10 60 0,0
19.04.2019 15:00:00 20,3 6,7 - - 9 5 SE 1031,3 14 60 0,0
19.04.2019 14:00:00 19,1 8,3 - - 8 4 ENE 1031,6 10 60 0,0
19.04.2019 13:00:00 17,3 9,4 - - 5 3 N 1031,8 10 60 0,0
19.04.2019 12:00:00 14,9 9,8 - - 9 5 NNW 1032,2 10 60 0,0
19.04.2019 11:00:00 12,5 8,7 - - 11 6 N 1032,2 8 60 0,0
19.04.2019 10:00:00 10,2 8,0 9,2 7,9 11 6 NNW 1032,4 7 60 0,0
19.04.2019 09:00:00 8,1 7,1 - - 9 5 N 1032,2 5 48 0,0
19.04.2019 08:00:00 4,8 4,4 - - 9 5 NW 1031,9 3,6 0 0,0
19.04.2019 07:00:00 4,2 3,7 - - 4 2 NNW 1031,7 3,4 0 0,0
19.04.2019 06:00:00 3,5 2,9 - - 5 3 NW 1031,4 2,6 0 0,0
19.04.2019 05:00:00 4,2 3,7 - - 4 2 NNW 1031,1 2,5 0 0,0
19.04.2019 04:00:00 3,6 2,8 - - 8 4 NW 1030,9 3,4 0 0,0
19.04.2019 03:00:00 4,1 3,5 - - 9 5 NW 1030,8 3,4 0 0,0
19.04.2019 02:00:00 3,9 3,2 - - 8 4 WNW 1030,9 2,8 0 0,0
19.04.2019 01:00:00 4,9 4,1 - - 5 3 N 1030,9 4,4 - 0,0
19.04.2019 00:00:00 5,9 5,1 - - 5 3 N 1031,0 5 0 0,0
18.04.2019 23:00:00 6,2 5,0 - - 5 3 N 1030,6 6 0 0,0
18.04.2019 22:00:00 7,1 5,8 - - 4 2 N 1030,0 6 0 0,0
18.04.2019 21:00:00 8,0 5,5 - - 9 5 WNW 1029,3 7 0 0,0
18.04.2019 20:00:00 11,6 6,7 - - 5 3 N 1028,2 10 0 0,0
18.04.2019 19:00:00 15,5 3,9 - - 8 4 E 1027,4 16 36 0,0
18.04.2019 18:00:00 17,0 4,2 - - 16 9 E 1026,8 22 60 0,0
18.04.2019 17:00:00 18,3 4,0 - - 18 10 E 1026,6 10 60 0,0
18.04.2019 16:00:00 18,1 3,6 - - 21 11 ESE 1026,6 10 54 0,0
18.04.2019 15:00:00 18,0 2,6 - - 22 12 ESE 1026,9 10 60 0,0
18.04.2019 14:00:00 16,7 10,3 - - 18 10 N 1026,9 9 60 0,0
18.04.2019 13:00:00 16,3 10,3 - - 11 6 N 1027,1 9 60 0,0
18.04.2019 12:00:00 14,6 9,4 - - 15 8 N 1027,3 9 60 0,0
18.04.2019 11:00:00 12,5 9,0 - - 15 8 N 1027,7 9 60 0,0
18.04.2019 10:00:00 10,8 8,0 9,0 7,7 13 7 NNW 1027,8 8 30 0,0
18.04.2019 09:00:00 8,9 7,3 - - 13 7 N 1027,7 4,5 6 0,0
18.04.2019 08:00:00 7,6 6,6 - - 11 6 NNW 1027,5 3,5 0 0,0

tt = temperature
td = dewpoint
tt -20cm = temperature -20cm
tt -100cm = temperature -100cm
ff = wind speed
dd = wind direction
ppp = reduced air pressure
vv = visibility
sd = sunshine duration
rr = precipitation

Next stations